QPF
0.03 0.02 0.02 0.01 0.01 0.01 0.01 0.00 0.00 0.00 0.00 0.00 0.00 0.00 0.00 0.01 0.01 0.02 0.01 0.01 0.01 0.01 0.01 0.01 0.01 0.02 0.03 0.05 0.07 0.07 0.05 0.08 0.12 0.11 0.10 0.10 0.06 0.04 0.04 0.04 0.03 0.03 0.02 0.02
0.03 0.01 0.01 0.01 0.01 0.01 0.01 0.01 0.00 0.00 0.00 0.00 0.00 0.00 0.00 0.00 0.01 0.01 0.01 0.00 0.00 0.01 0.01 0.01 0.02 0.01 0.02 0.04 0.07 0.09 0.05 0.05 0.09 0.13 0.13 0.12 0.10 0.06 0.04 0.05 0.05 0.04 0.03 0.03
0.02 0.01 0.01 0.01 0.01 0.01 0.01 0.00 0.00 0.00 0.00 0.00 0.00 0.00 0.00 0.00 0.00 0.00 0.01 0.01 0.01 0.00 0.00 0.00 0.01 0.01 0.02 0.04 0.06 0.10 0.09 0.04 0.05 0.09 0.12 0.13 0.13 0.11 0.07 0.04 0.05 0.04 0.03 0.02
0.01 0.01 0.01 0.01 0.01 0.01 0.01 0.00 0.00 0.00 0.01 0.01 0.00 0.00 0.00 0.00 0.00 0.00 0.00 0.00 0.00 0.00 0.00 0.00 0.00 0.00 0.01 0.02 0.05 0.07 0.10 0.09 0.05 0.06 0.09 0.11 0.12 0.11 0.08 0.05 0.04 0.04 0.04 0.04
0.01 0.00 0.00 0.01 0.01 0.01 0.01 0.01 0.01 0.01 0.01 0.01 0.00 0.00 0.00 0.00 0.00 0.00 0.00 0.00 0.00 0.00 0.00 0.00 0.00 0.00 0.01 0.01 0.03 0.06 0.08 0.09 0.08 0.05 0.06 0.07 0.08 0.08 0.07 0.06 0.05 0.04 0.03 0.04
0.02 0.01 0.00 0.00 0.00 0.01 0.01 0.01 0.01 0.01 0.02 0.01 0.00 0.00 0.00 0.00 0.00 0.00 0.00 0.00 0.00 0.00 0.00 0.00 0.00 0.00 0.01 0.01 0.02 0.04 0.05 0.06 0.08 0.07 0.05 0.05 0.07 0.08 0.08 0.07 0.06 0.05 0.04 0.03
0.01 0.01 0.00 0.00 0.01 0.01 0.02 0.02 0.02 0.02 0.02 0.01 0.00 0.00 0.00 0.00 0.00 0.00 0.00 0.00 0.00 0.00 0.00 0.00 0.00 0.00 0.00 0.01 0.01 0.02 0.03 0.03 0.05 0.08 0.07 0.05 0.05 0.07 0.08 0.07 0.06 0.05 0.05 0.04
0.00 0.00 0.00 0.00 0.00 0.00 0.01 0.01 0.02 0.01 0.00 0.00 0.00 0.01 0.01 0.01 0.00 0.00 0.00 0.00 0.00 0.00 0.00 0.00 0.00 0.00 0.00 0.00 0.01 0.01 0.02 0.02 0.02 0.06 0.09 0.08 0.06 0.04 0.05 0.07 0.06 0.05 0.05 0.05
0.00 0.00 0.00 0.00 0.00 0.00 0.01 0.01 0.01 0.01 0.01 0.00 0.00 0.00 0.01 0.01 0.01 0.01 0.00 0.00 0.00 0.00 0.01 0.02 0.01 0.01 0.00 0.00 0.00 0.01 0.01 0.02 0.02 0.03 0.06 0.08 0.09 0.05 0.04 0.05 0.05 0.04 0.03 0.03
0.01 0.01 0.00 0.00 0.00 0.00 0.00 0.00 0.01 0.02 0.01 0.00 0.00 0.00 0.01 0.01 0.01 0.01 0.01 0.01 0.01 0.01 0.02 0.02 0.01 0.01 0.01 0.00 0.00 0.01 0.01 0.01 0.02 0.02 0.03 0.05 0.07 0.06 0.04 0.04 0.04 0.04 0.03 0.02
0.01 0.01 0.01 0.00 0.00 0.00 0.00 0.00 0.00 0.01 0.00 0.00 0.00 0.00 0.01 0.01 0.01 0.01 0.01 0.01 0.01 0.01 0.02 0.02 0.01 0.01 0.01 0.01 0.00 0.01 0.01 0.01 0.01 0.02 0.02 0.04 0.06 0.07 0.06 0.05 0.04 0.04 0.03 0.02
0.01 0.01 0.01 0.01 0.00 0.00 0.00 0.00 0.00 0.01 0.01 0.00 0.00 0.00 0.00 0.01 0.01 0.01 0.01 0.00 0.00 0.01 0.01 0.01 0.01 0.01 0.01 0.00 0.00 0.00 0.01 0.01 0.01 0.01 0.02 0.02 0.05 0.08 0.08 0.07 0.05 0.04 0.04 0.03
0.01 0.02 0.01 0.01 0.00 0.00 0.00 0.00 0.00 0.01 0.01 0.01 0.00 0.00 0.00 0.01 0.01 0.01 0.00 0.00 0.00 0.01 0.01 0.01 0.01 0.01 0.01 0.01 0.01 0.00 0.00 0.00 0.01 0.01 0.01 0.02 0.02 0.04 0.06 0.07 0.07 0.07 0.06 0.06
0.02 0.02 0.01 0.00 0.00 0.00 0.00 0.00 0.00 0.01 0.01 0.01 0.01 0.01 0.01 0.01 0.01 0.00 0.00 0.00 0.00 0.00 0.00 0.01 0.01 0.01 0.01 0.01 0.01 0.01 0.01 0.00 0.00 0.01 0.01 0.02 0.02 0.03 0.04 0.04 0.05 0.06 0.07 0.07
0.03 0.02 0.00 0.00 0.00 0.00 0.00 0.00 0.00 0.00 0.00 0.01 0.00 0.00 0.01 0.01 0.00 0.00 0.00 0.00 0.00 0.00 0.00 0.01 0.01 0.01 0.01 0.02 0.01 0.01 0.01 0.01 0.00 0.01 0.01 0.02 0.03 0.03 0.03 0.04 0.04 0.05 0.05 0.05
0.03 0.02 0.01 0.00 0.00 0.00 0.00 0.00 0.00 0.00 0.00 0.00 0.00 0.00 0.00 0.00 0.00 0.00 0.00 0.00 0.01 0.01 0.00 0.00 0.01 0.01 0.02 0.03 0.03 0.03 0.02 0.01 0.01 0.01 0.01 0.02 0.03 0.03 0.03 0.04 0.04 0.04 0.04 0.04
0.04 0.02 0.02 0.01 0.00 0.01 0.01 0.00 0.00 0.00 0.00 0.00 0.00 0.00 0.00 0.00 0.00 0.00 0.00 0.01 0.01 0.01 0.00 0.00 0.01 0.01 0.03 0.04 0.05 0.06 0.04 0.02 0.01 0.01 0.02 0.02 0.02 0.03 0.03 0.03 0.04 0.03 0.03 0.03
0.03 0.03 0.03 0.02 0.01 0.02 0.01 0.00 0.00 0.00 0.00 0.00 0.00 0.00 0.00 0.00 0.00 0.00 0.01 0.01 0.01 0.00 0.00 0.00 0.01 0.02 0.02 0.04 0.04 0.05 0.05 0.04 0.04 0.03 0.03 0.03 0.03 0.03 0.03 0.03 0.04 0.03 0.03 0.03
0.02 0.03 0.05 0.04 0.02 0.01 0.00 0.00 0.00 0.00 0.00 0.00 0.00 0.00 0.00 0.00 0.00 0.00 0.00 0.01 0.01 0.00 0.00 0.00 0.01 0.01 0.01 0.02 0.02 0.03 0.05 0.05 0.04 0.04 0.03 0.03 0.03 0.03 0.03 0.03 0.04 0.03 0.03 0.02
0.02 0.03 0.05 0.05 0.03 0.01 0.00 0.00 0.00 0.00 0.01 0.01 0.01 0.01 0.01 0.00 0.00 0.01 0.01 0.01 0.00 0.00 0.00 0.00 0.00 0.00 0.00 0.01 0.01 0.01 0.02 0.02 0.03 0.03 0.02 0.02 0.02 0.02 0.03 0.03 0.03 0.03 0.02 0.02
0.02 0.04 0.05 0.04 0.03 0.01 0.01 0.00 0.00 0.01 0.02 0.01 0.01 0.01 0.01 0.01 0.02 0.02 0.02 0.01 0.01 0.00 0.00 0.00 0.00 0.00 0.00 0.00 0.00 0.00 0.01 0.01 0.01 0.01 0.01 0.02 0.02 0.02 0.02 0.02 0.02 0.02 0.02 0.02
0.01 0.02 0.03 0.02 0.03 0.02 0.01 0.01 0.01 0.02 0.01 0.01 0.00 0.01 0.01 0.02 0.01 0.01 0.01 0.01 0.01 0.00 0.00 0.00 0.00 0.00 0.00 0.01 0.01 0.01 0.01 0.01 0.01 0.01 0.01 0.01 0.01 0.02 0.02 0.02 0.02 0.03 0.03 0.02
0.01 0.02 0.02 0.02 0.02 0.02 0.02 0.01 0.02 0.01 0.01 0.01 0.01 0.01 0.01 0.01 0.01 0.01 0.01 0.01 0.01 0.01 0.01 0.01 0.01 0.01 0.01 0.01 0.01 0.02 0.02 0.01 0.01 0.01 0.01 0.01 0.02 0.02 0.02 0.02 0.03 0.03 0.03 0.03
0.01 0.01 0.01 0.01 0.02 0.01 0.01 0.01 0.01 0.01 0.01 0.01 0.01 0.01 0.01 0.01 0.00 0.01 0.01 0.01 0.01 0.01 0.01 0.01 0.01 0.01 0.01 0.01 0.02 0.02 0.02 0.02 0.01 0.01 0.01 0.02 0.02 0.02 0.02 0.02 0.03 0.03 0.03 0.03
0.02 0.02 0.02 0.02 0.01 0.01 0.01 0.01 0.01 0.01 0.01 0.01 0.01 0.00 0.00 0.00 0.00 0.01 0.01 0.01 0.01 0.01 0.01 0.01 0.01 0.01 0.01 0.02 0.02 0.02 0.02 0.01 0.01 0.01 0.01 0.02 0.01 0.01 0.01 0.01 0.02 0.02 0.03 0.03
0.02 0.02 0.02 0.02 0.02 0.02 0.01 0.01 0.01 0.00 0.00 0.00 0.00 0.00 0.00 0.00 0.00 0.01 0.01 0.01 0.01 0.01 0.01 0.01 0.01 0.01 0.01 0.01 0.01 0.01 0.01 0.01 0.01 0.01 0.01 0.01 0.01 0.01 0.01 0.01 0.01 0.02 0.02 0.02
MSLP
1025.06 1026.16 1027.22 1028.11 1028.73 1029.04 1029.04 1028.79 1028.39 1027.96 1027.61 1027.41 1027.40 1027.55 1027.82 1028.12 1028.36 1028.49 1028.48 1028.34 1028.09 1027.80 1027.51 1027.27 1027.07 1026.90 1026.70 1026.41 1025.97 1025.35 1024.54 1023.57 1022.48 1021.34 1020.19 1019.09 1018.03 1016.99 1015.95 1014.86 1013.67 1012.38 1010.99 1009.55
1026.75 1027.72 1028.59 1029.27 1029.68 1029.81 1029.65 1029.29 1028.81 1028.32 1027.91 1027.65 1027.56 1027.62 1027.79 1027.98 1028.14 1028.21 1028.16 1028.01 1027.78 1027.52 1027.27 1027.07 1026.90 1026.75 1026.57 1026.31 1025.92 1025.36 1024.64 1023.76 1022.77 1021.71 1020.64 1019.56 1018.50 1017.43 1016.33 1015.16 1013.89 1012.53 1011.09 1009.61
1028.30 1029.10 1029.78 1030.26 1030.49 1030.47 1030.21 1029.78 1029.26 1028.73 1028.29 1027.97 1027.79 1027.74 1027.79 1027.87 1027.93 1027.94 1027.86 1027.72 1027.52 1027.31 1027.11 1026.94 1026.79 1026.65 1026.48 1026.23 1025.87 1025.38 1024.74 1023.97 1023.10 1022.15 1021.15 1020.13 1019.08 1017.99 1016.84 1015.61 1014.30 1012.90 1011.45 1009.98
1029.60 1030.21 1030.68 1030.99 1031.08 1030.97 1030.67 1030.23 1029.73 1029.22 1028.76 1028.39 1028.12 1027.96 1027.87 1027.82 1027.78 1027.72 1027.62 1027.50 1027.35 1027.19 1027.04 1026.90 1026.77 1026.63 1026.45 1026.20 1025.87 1025.43 1024.88 1024.22 1023.47 1022.64 1021.74 1020.78 1019.77 1018.68 1017.52 1016.27 1014.95 1013.57 1012.16 1010.75
1030.56 1030.97 1031.26 1031.42 1031.43 1031.29 1031.02 1030.66 1030.23 1029.78 1029.35 1028.95 1028.60 1028.31 1028.08 1027.89 1027.73 1027.60 1027.47 1027.36 1027.26 1027.16 1027.06 1026.96 1026.84 1026.69 1026.50 1026.25 1025.93 1025.53 1025.06 1024.50 1023.87 1023.16 1022.38 1021.51 1020.56 1019.51 1018.37 1017.15 1015.88 1014.56 1013.23 1011.92
1031.16 1031.38 1031.52 1031.57 1031.55 1031.46 1031.30 1031.07 1030.79 1030.45 1030.08 1029.68 1029.26 1028.85 1028.46 1028.12 1027.82 1027.60 1027.43 1027.32 1027.24 1027.20 1027.15 1027.08 1026.98 1026.83 1026.62 1026.36 1026.04 1025.68 1025.27 1024.81 1024.29 1023.71 1023.04 1022.28 1021.41 1020.44 1019.37 1018.23 1017.03 1015.82 1014.62 1013.45
1031.45 1031.50 1031.52 1031.53 1031.53 1031.55 1031.55 1031.52 1031.42 1031.25 1030.96 1030.58 1030.11 1029.58 1029.03 1028.51 1028.07 1027.72 1027.48 1027.35 1027.29 1027.27 1027.27 1027.24 1027.15 1027.00 1026.78 1026.51 1026.19 1025.85 1025.50 1025.11 1024.70 1024.24 1023.69 1023.05 1022.29 1021.43 1020.46 1019.42 1018.35 1017.27 1016.21 1015.21
1031.52 1031.45 1031.39 1031.39 1031.47 1031.62 1031.82 1032.02 1032.14 1032.14 1031.97 1031.62 1031.10 1030.46 1029.75 1029.05 1028.44 1027.95 1027.61 1027.42 1027.34 1027.35 1027.37 1027.36 1027.29 1027.15 1026.92 1026.65 1026.34 1026.02 1025.70 1025.39 1025.07 1024.71 1024.29 1023.77 1023.14 1022.39 1021.55 1020.64 1019.70 1018.76 1017.85 1017.00
1031.49 1031.33 1031.24 1031.27 1031.45 1031.77 1032.17 1032.59 1032.92 1033.09 1033.03 1032.71 1032.15 1031.39 1030.53 1029.65 1028.86 1028.21 1027.75 1027.48 1027.37 1027.36 1027.39 1027.41 1027.36 1027.22 1027.01 1026.74 1026.43 1026.13 1025.86 1025.60 1025.36 1025.10 1024.79 1024.39 1023.89 1023.28 1022.56 1021.78 1020.97 1020.16 1019.38 1018.66
1031.46 1031.28 1031.19 1031.28 1031.55 1032.01 1032.59 1033.18 1033.69 1033.99 1034.01 1033.71 1033.11 1032.25 1031.25 1030.20 1029.23 1028.43 1027.84 1027.47 1027.30 1027.27 1027.30 1027.33 1027.30 1027.19 1026.99 1026.74 1026.45 1026.18 1025.94 1025.74 1025.56 1025.39 1025.17 1024.89 1024.50 1024.01 1023.42 1022.76 1022.06 1021.36 1020.68 1020.04
1031.53 1031.37 1031.31 1031.45 1031.80 1032.34 1033.02 1033.73 1034.33 1034.70 1034.76 1034.46 1033.81 1032.87 1031.75 1030.56 1029.45 1028.51 1027.80 1027.35 1027.11 1027.05 1027.07 1027.11 1027.10 1027.02 1026.86 1026.63 1026.38 1026.14 1025.94 1025.78 1025.66 1025.56 1025.43 1025.24 1024.97 1024.58 1024.10 1023.53 1022.92 1022.29 1021.68 1021.10
1031.75 1031.63 1031.61 1031.77 1032.14 1032.70 1033.40 1034.11 1034.72 1035.09 1035.14 1034.81 1034.12 1033.11 1031.91 1030.64 1029.43 1028.39 1027.60 1027.07 1026.78 1026.69 1026.70 1026.75 1026.77 1026.73 1026.61 1026.43 1026.22 1026.02 1025.86 1025.75 1025.69 1025.64 1025.59 1025.48 1025.29 1025.00 1024.60 1024.12 1023.58 1023.00 1022.42 1021.87
1032.12 1032.05 1032.05 1032.19 1032.51 1033.01 1033.61 1034.24 1034.76 1035.06 1035.04 1034.66 1033.93 1032.90 1031.67 1030.37 1029.13 1028.06 1027.22 1026.65 1026.33 1026.21 1026.22 1026.28 1026.33 1026.33 1026.26 1026.14 1025.98 1025.84 1025.73 1025.66 1025.65 1025.66 1025.67 1025.63 1025.52 1025.31 1024.99 1024.58 1024.10 1023.56 1023.01 1022.47
1032.61 1032.57 1032.56 1032.63 1032.84 1033.17 1033.60 1034.04 1034.39 1034.55 1034.43 1034.00 1033.24 1032.23 1031.03 1029.77 1028.56 1027.52 1026.69 1026.12 1025.79 1025.66 1025.67 1025.74 1025.82 1025.86 1025.84 1025.78 1025.69 1025.61 1025.55 1025.55 1025.58 1025.65 1025.71 1025.74 1025.70 1025.56 1025.33 1024.99 1024.57 1024.08 1023.56 1023.04
1033.16 1033.14 1033.07 1033.02 1033.04 1033.14 1033.31 1033.50 1033.62 1033.59 1033.35 1032.86 1032.12 1031.16 1030.05 1028.90 1027.80 1026.83 1026.07 1025.53 1025.21 1025.09 1025.09 1025.17 1025.27 1025.34 1025.38 1025.38 1025.36 1025.35 1025.36 1025.41 1025.50 1025.62 1025.74 1025.83 1025.86 1025.81 1025.65 1025.40 1025.06 1024.64 1024.17 1023.68
1033.72 1033.66 1033.49 1033.28 1033.07 1032.89 1032.76 1032.65 1032.51 1032.28 1031.92 1031.39 1030.68 1029.82 1028.86 1027.87 1026.92 1026.09 1025.42 1024.94 1024.65 1024.53 1024.53 1024.60 1024.70 1024.81 1024.89 1024.95 1025.01 1025.06 1025.15 1025.26 1025.41 1025.59 1025.76 1025.92 1026.02 1026.06 1026.00 1025.84 1025.59 1025.27 1024.88 1024.46
1034.19 1034.07 1033.77 1033.36 1032.90 1032.44 1031.99 1031.58 1031.18 1030.76 1030.29 1029.75 1029.11 1028.38 1027.60 1026.80 1026.04 1025.37 1024.81 1024.40 1024.14 1024.01 1023.99 1024.05 1024.15 1024.27 1024.39 1024.50 1024.62 1024.76 1024.91 1025.10 1025.32 1025.55 1025.79 1026.01 1026.19 1026.31 1026.35 1026.30 1026.17 1025.95 1025.67 1025.33
1034.50 1034.28 1033.85 1033.24 1032.54 1031.80 1031.07 1030.39 1029.76 1029.19 1028.64 1028.11 1027.56 1026.99 1026.40 1025.81 1025.25 1024.73 1024.29 1023.94 1023.70 1023.56 1023.51 1023.53 1023.61 1023.73 1023.87 1024.04 1024.22 1024.43 1024.66 1024.92 1025.20 1025.50 1025.79 1026.08 1026.33 1026.53 1026.66 1026.73 1026.71 1026.62 1026.45 1026.21
1034.54 1034.23 1033.67 1032.90 1031.99 1031.02 1030.07 1029.18 1028.38 1027.70 1027.11 1026.61 1026.17 1025.76 1025.36 1024.97 1024.58 1024.21 1023.87 1023.57 1023.34 1023.17 1023.07 1023.05 1023.10 1023.20 1023.36 1023.57 1023.81 1024.09 1024.40 1024.73 1025.07 1025.42 1025.77 1026.11 1026.42 1026.69 1026.91 1027.07 1027.16 1027.17 1027.11 1026.98
1034.24 1033.85 1033.19 1032.30 1031.26 1030.15 1029.04 1028.01 1027.12 1026.38 1025.79 1025.35 1025.01 1024.74 1024.51 1024.29 1024.05 1023.80 1023.53 1023.27 1023.02 1022.82 1022.68 1022.61 1022.62 1022.72 1022.89 1023.13 1023.42 1023.76 1024.14 1024.53 1024.94 1025.34 1025.73 1026.11 1026.46 1026.78 1027.06 1027.29 1027.46 1027.57 1027.60 1027.55
1033.55 1033.11 1032.40 1031.46 1030.36 1029.18 1028.01 1026.93 1026.00 1025.26 1024.70 1024.33 1024.09 1023.95 1023.85 1023.76 1023.64 1023.47 1023.25 1023.01 1022.75 1022.52 1022.33 1022.22 1022.20 1022.29 1022.47 1022.74 1023.08 1023.48 1023.91 1024.36 1024.81 1025.25 1025.68 1026.08 1026.46 1026.81 1027.12 1027.39 1027.62 1027.78 1027.87 1027.89
1032.45 1032.00 1031.29 1030.36 1029.28 1028.12 1026.98 1025.93 1025.04 1024.34 1023.84 1023.54 1023.39 1023.34 1023.34 1023.34 1023.29 1023.18 1023.00 1022.76 1022.50 1022.24 1022.03 1021.90 1021.87 1021.95 1022.15 1022.45 1022.83 1023.27 1023.75 1024.24 1024.73 1025.20 1025.64 1026.06 1026.45 1026.81 1027.13 1027.43 1027.67 1027.86 1027.98 1028.03
1030.97 1030.54 1029.89 1029.04 1028.05 1027.00 1025.96 1025.00 1024.20 1023.59 1023.17 1022.94 1022.86 1022.88 1022.93 1022.98 1022.98 1022.90 1022.75 1022.53 1022.27 1022.01 1021.80 1021.66 1021.63 1021.73 1021.94 1022.27 1022.68 1023.16 1023.67 1024.19 1024.70 1025.19 1025.65 1026.07 1026.47 1026.83 1027.16 1027.45 1027.69 1027.89 1028.01 1028.06
1029.21 1028.83 1028.26 1027.54 1026.71 1025.82 1024.95 1024.15 1023.48 1022.98 1022.66 1022.49 1022.46 1022.51 1022.60 1022.67 1022.69 1022.63 1022.50 1022.30 1022.06 1021.82 1021.63 1021.52 1021.51 1021.63 1021.86 1022.20 1022.64 1023.13 1023.66 1024.20 1024.72 1025.22 1025.69 1026.13 1026.53 1026.90 1027.23 1027.52 1027.76 1027.95 1028.07 1028.11
1027.29 1026.97 1026.52 1025.96 1025.32 1024.64 1023.97 1023.36 1022.87 1022.50 1022.27 1022.17 1022.17 1022.23 1022.32 1022.39 1022.41 1022.36 1022.25 1022.08 1021.88 1021.69 1021.54 1021.47 1021.49 1021.63 1021.88 1022.24 1022.67 1023.16 1023.69 1024.23 1024.76 1025.27 1025.76 1026.21 1026.63 1027.02 1027.37 1027.67 1027.92 1028.11 1028.22 1028.26
1025.36 1025.09 1024.76 1024.38 1023.95 1023.50 1023.07 1022.68 1022.36 1022.14 1022.00 1021.96 1021.98 1022.04 1022.11 1022.16 1022.17 1022.12 1022.02 1021.89 1021.74 1021.60 1021.51 1021.48 1021.55 1021.71 1021.97 1022.31 1022.73 1023.20 1023.71 1024.23 1024.76 1025.28 1025.78 1026.27 1026.73 1027.16 1027.55 1027.89 1028.17 1028.38 1028.51 1028.55
Thickness
5552 5546 5541 5541 5542 5547 5544 5541 5539 5544 5548 5546 5546 5552 5564 5563 5559 5561 5562 5564 5567 5570 5572 5570 5568 5567 5565 5564 5563 5563 5563 5563 5561 5559 5557 5556 5556 5555 5554 5553 5552 5550 5548 5546
5545 5542 5543 5542 5541 5541 5540 5538 5537 5541 5543 5541 5540 5547 5560 5561 5561 5563 5564 5565 5567 5567 5568 5567 5564 5563 5561 5560 5559 5559 5558 5558 5558 5556 5554 5553 5552 5550 5549 5548 5546 5545 5544 5541
5545 5543 5541 5540 5538 5538 5537 5535 5535 5535 5536 5537 5535 5547 5560 5565 5562 5564 5565 5566 5566 5566 5566 5565 5562 5559 5557 5556 5556 5556 5554 5553 5553 5552 5550 5548 5546 5545 5544 5542 5541 5540 5539 5536
5536 5537 5539 5538 5536 5536 5536 5535 5534 5531 5528 5526 5529 5532 5557 5561 5560 5565 5566 5564 5564 5565 5565 5563 5561 5558 5556 5555 5553 5552 5550 5549 5549 5548 5546 5545 5543 5542 5542 5540 5538 5536 5534 5532
5534 5531 5533 5534 5534 5532 5531 5529 5528 5527 5524 5519 5521 5520 5550 5554 5562 5571 5570 5567 5565 5564 5562 5561 5560 5558 5555 5552 5550 5548 5546 5545 5544 5544 5543 5542 5540 5539 5537 5535 5533 5531 5529 5527
5527 5525 5526 5528 5526 5527 5523 5523 5520 5513 5512 5516 5524 5519 5543 5551 5566 5572 5572 5568 5565 5562 5560 5559 5557 5554 5551 5548 5546 5544 5542 5541 5541 5540 5540 5539 5537 5535 5532 5530 5528 5526 5524 5522
5526 5524 5520 5521 5523 5522 5522 5519 5512 5510 5498 5511 5515 5517 5542 5562 5565 5567 5567 5565 5562 5559 5557 5555 5553 5551 5549 5546 5543 5541 5539 5539 5537 5536 5536 5535 5534 5532 5530 5528 5526 5522 5520 5518
5521 5522 5518 5515 5519 5517 5515 5520 5513 5510 5506 5507 5507 5515 5550 5561 5560 5559 5558 5557 5555 5554 5552 5552 5552 5550 5547 5545 5541 5538 5536 5536 5534 5533 5533 5532 5529 5527 5526 5524 5522 5520 5517 5515
5516 5518 5511 5510 5510 5514 5510 5505 5508 5496 5484 5490 5509 5518 5540 5558 5557 5556 5553 5551 5550 5549 5548 5547 5547 5546 5544 5542 5539 5536 5534 5533 5532 5530 5529 5527 5525 5523 5522 5520 5517 5515 5513 5511
5509 5506 5505 5502 5505 5504 5506 5501 5492 5492 5497 5501 5512 5519 5536 5557 5558 5555 5551 5547 5545 5544 5543 5542 5541 5540 5539 5538 5535 5532 5531 5530 5528 5526 5524 5524 5521 5519 5518 5515 5513 5511 5509 5506
5503 5501 5497 5497 5496 5500 5496 5495 5492 5485 5486 5496 5504 5534 5547 5551 5552 5548 5545 5541 5538 5537 5537 5536 5536 5535 5534 5532 5530 5527 5526 5524 5523 5522 5520 5519 5517 5515 5513 5511 5509 5507 5504 5501
5495 5491 5487 5491 5489 5490 5492 5494 5490 5495 5488 5482 5495 5529 5553 5546 5542 5538 5538 5536 5533 5531 5531 5530 5530 5529 5528 5526 5524 5522 5521 5520 5519 5518 5516 5514 5512 5510 5508 5507 5505 5502 5499 5496
5488 5486 5487 5495 5487 5478 5481 5483 5482 5481 5478 5471 5485 5529 5545 5539 5538 5535 5532 5530 5527 5526 5526 5524 5523 5523 5522 5521 5519 5518 5516 5515 5514 5512 5510 5509 5507 5505 5504 5502 5500 5497 5494 5491
5483 5477 5486 5501 5504 5485 5477 5477 5474 5476 5477 5476 5490 5521 5539 5540 5534 5532 5529 5525 5521 5520 5520 5518 5517 5517 5516 5515 5514 5512 5511 5510 5508 5506 5504 5503 5502 5501 5499 5497 5494 5492 5489 5486
5473 5469 5468 5473 5474 5471 5474 5477 5471 5475 5486 5491 5509 5507 5532 5534 5528 5525 5522 5520 5518 5517 5516 5514 5512 5510 5509 5509 5508 5507 5505 5504 5502 5500 5498 5498 5496 5494 5492 5490 5488 5486 5483 5481
5458 5459 5457 5461 5465 5463 5465 5474 5473 5477 5480 5483 5492 5507 5526 5519 5516 5515 5514 5513 5511 5511 5510 5508 5506 5505 5504 5503 5502 5501 5499 5498 5496 5494 5493 5491 5488 5487 5485 5483 5481 5479 5476 5474
5447 5447 5451 5459 5452 5460 5472 5489 5481 5477 5482 5486 5497 5519 5518 5515 5512 5510 5508 5504 5504 5504 5503 5501 5500 5499 5499 5497 5496 5495 5494 5492 5489 5487 5486 5484 5482 5480 5478 5475 5473 5471 5469 5466
5442 5440 5436 5436 5447 5470 5510 5500 5491 5488 5488 5486 5495 5503 5505 5506 5503 5499 5498 5497 5497 5497 5496 5495 5493 5492 5490 5489 5487 5486 5484 5483 5481 5480 5478 5477 5474 5472 5470 5467 5465 5462 5460 5458
5439 5436 5425 5425 5438 5457 5490 5488 5480 5482 5489 5488 5487 5494 5494 5493 5493 5498 5495 5491 5491 5490 5488 5487 5485 5482 5481 5479 5478 5476 5475 5473 5472 5471 5470 5469 5466 5464 5461 5459 5456 5454 5452 5450
5427 5426 5420 5415 5438 5458 5497 5484 5475 5480 5488 5490 5481 5483 5483 5482 5488 5497 5490 5484 5482 5479 5477 5476 5474 5472 5471 5469 5468 5467 5465 5463 5463 5463 5461 5459 5457 5454 5452 5450 5447 5445 5443 5441
5414 5411 5412 5411 5421 5446 5467 5463 5467 5479 5490 5480 5469 5469 5467 5469 5476 5477 5473 5470 5469 5467 5466 5465 5463 5462 5460 5459 5458 5456 5454 5453 5453 5452 5450 5448 5446 5444 5442 5440 5438 5436 5433 5431
5416 5407 5403 5402 5414 5447 5452 5446 5455 5466 5465 5462 5458 5456 5455 5458 5459 5458 5457 5457 5456 5455 5454 5453 5452 5450 5448 5447 5447 5446 5444 5443 5441 5440 5439 5437 5435 5433 5431 5429 5427 5425 5423 5421
5418 5425 5421 5426 5443 5444 5434 5436 5438 5439 5443 5445 5442 5442 5442 5444 5445 5444 5445 5445 5444 5443 5441 5440 5438 5437 5435 5434 5434 5434 5432 5430 5430 5429 5428 5426 5424 5422 5420 5419 5416 5413 5411 5409
5404 5404 5411 5411 5423 5424 5420 5420 5421 5421 5423 5425 5425 5426 5427 5429 5431 5431 5432 5432 5431 5430 5428 5427 5425 5424 5422 5420 5419 5419 5419 5418 5418 5418 5416 5415 5413 5411 5408 5407 5405 5403 5400 5398
5395 5385 5394 5401 5406 5408 5414 5408 5408 5409 5408 5408 5409 5411 5412 5415 5416 5417 5418 5418 5417 5417 5415 5413 5412 5411 5410 5407 5406 5405 5405 5405 5406 5405 5404 5402 5401 5399 5397 5395 5393 5391 5390 5388
5375 5375 5384 5402 5397 5396 5405 5400 5397 5394 5395 5395 5396 5399 5399 5400 5402 5403 5403 5402 5401 5400 5398 5397 5396 5395 5394 5393 5392 5391 5391 5392 5392 5392 5391 5389 5387 5386 5384 5382 5380 5379 5377 5375